When you browse on this site, cookies collect data to enhance your experience and personalize the content and advertising you see.
Visit our Privacy Policy to learn more. By continuing to use the site, you agree to this use of cookies and data.
  • în România
  • Lista ţărilor
  • Pe 7 zile
  • Temperatura apei
  • Hartă satelitară
  • Meteo pe hartă
  • Widget-uri
  • user-avatar
    Intrare

    Meteo pe oră la Akranes

    Astăzi, 20 Martie, Miercuri

    Timp Temperatura Precipitaţii Vânt Presiune Umiditate
    00:00 -5°C° 0.2 mm 15 m/s 742 mmHg 75%
    01:00 -6°C° 0.2 mm 14 m/s 743 mmHg 75%
    02:00 -6°C° 0.2 mm 14 m/s 743 mmHg 75%
    03:00 -6°C° 0.3 mm 14 m/s 743 mmHg 75%
    04:00 -6°C° 0.3 mm 14 m/s 744 mmHg 76%
    05:00 -6°C° 0.3 mm 14 m/s 744 mmHg 76%
    06:00 -6°C° 0.3 mm 14 m/s 744 mmHg 75%
    07:00 -6°C° 0.3 mm 14 m/s 744 mmHg 75%
    08:00 -6°C° 0.3 mm 14 m/s 744 mmHg 74%
    09:00 -7°C° 0.2 mm 15 m/s 744 mmHg 73%
    10:00 -7°C° 0.2 mm 15 m/s 745 mmHg 72%
    11:00 -7°C° 0.2 mm 15 m/s 745 mmHg 71%
    12:00 -8°C° 0.2 mm 15 m/s 745 mmHg 70%
    13:00 -8°C° 0.2 mm 15 m/s 745 mmHg 69%
    14:00 -8°C° 0.2 mm 15 m/s 745 mmHg 69%
    15:00 -8°C° 0.3 mm 15 m/s 746 mmHg 69%
    16:00 -8°C° 0.3 mm 14 m/s 746 mmHg 70%
    17:00 -9°C° 0.3 mm 14 m/s 746 mmHg 70%
    18:00 -8°C° 0.3 mm 14 m/s 747 mmHg 70%
    19:00 -8°C° 0.3 mm 14 m/s 747 mmHg 70%
    20:00 -7°C° 0.3 mm 13 m/s 748 mmHg 69%
    21:00 -7°C° 0.2 mm 13 m/s 748 mmHg 69%
    22:00 -7°C° 0.2 mm 13 m/s 748 mmHg 68%
    23:00 -7°C° 0.2 mm 13 m/s 748 mmHg 68%

    Mâine, 21 Martie, Joi

    Timp Temperatura Precipitaţii Vânt Presiune Umiditate
    00:00 -7°C° 0.3 mm 13 m/s 748 mmHg 68%
    01:00 -7°C° 0.3 mm 12 m/s 748 mmHg 68%
    02:00 -7°C° 0.3 mm 12 m/s 748 mmHg 69%
    03:00 -7°C° 0.3 mm 11 m/s 748 mmHg 69%
    04:00 -7°C° 0.3 mm 10 m/s 748 mmHg 70%
    05:00 -6°C° 0.3 mm 9 m/s 748 mmHg 71%
    06:00 -6°C° 0.2 mm 9 m/s 748 mmHg 71%
    07:00 -5°C° 0.2 mm 9 m/s 748 mmHg 71%
    08:00 -5°C° 0.2 mm 9 m/s 748 mmHg 70%
    09:00 -4°C° 0.3 mm 10 m/s 748 mmHg 69%
    10:00 -4°C° 0.3 mm 10 m/s 748 mmHg 68%
    11:00 -3°C° 0.3 mm 11 m/s 748 mmHg 66%
    12:00 -3°C° 0.3 mm 11 m/s 748 mmHg 66%
    13:00 -3°C° 0.3 mm 10 m/s 748 mmHg 65%
    14:00 -3°C° 0.3 mm 10 m/s 748 mmHg 65%
    15:00 -3°C° 0.2 mm 9 m/s 748 mmHg 65%
    16:00 -3°C° 0.2 mm 9 m/s 748 mmHg 66%
    17:00 -4°C° 0.2 mm 8 m/s 748 mmHg 66%
    18:00 -4°C° 0.2 mm 8 m/s 747 mmHg 69%
    19:00 -3°C° 0.2 mm 7 m/s 747 mmHg 72%
    20:00 -4°C° 0.2 mm 7 m/s 747 mmHg 75%
    21:00 -4°C° 0.2 mm 7 m/s 746 mmHg 76%
    22:00 -4°C° 0.2 mm 7 m/s 746 mmHg 78%
    23:00 -4°C° 0.2 mm 7 m/s 746 mmHg 80%

    Poimâine, 22 Martie, Vineri

    Timp Temperatura Precipitaţii Vânt Presiune Umiditate
    00:00 -4°C° 0.2 mm 7 m/s 745 mmHg 80%
    01:00 -4°C° 0.2 mm 7 m/s 744 mmHg 81%
    02:00 -4°C° 0.2 mm 7 m/s 744 mmHg 81%
    03:00 -4°C° 0.3 mm 7 m/s 743 mmHg 82%
    04:00 -4°C° 0.3 mm 6 m/s 742 mmHg 84%
    05:00 -4°C° 0.3 mm 6 m/s 741 mmHg 85%
    06:00 -4°C° 0.5 mm 6 m/s 740 mmHg 86%
    07:00 -4°C° 0.5 mm 7 m/s 739 mmHg 87%
    08:00 -4°C° 0.5 mm 7 m/s 738 mmHg 88%
    09:00 -3°C° 0.7 mm 6 m/s 737 mmHg 86%
    10:00 -3°C° 0.7 mm 6 m/s 737 mmHg 84%
    11:00 -2°C° 0.7 mm 5 m/s 736 mmHg 82%
    12:00 -5°C° 1 mm 9 m/s 737 mmHg 83%
    13:00 -7°C° 1 mm 13 m/s 738 mmHg 84%
    14:00 -11°C° 1 mm 18 m/s 739 mmHg 85%
    15:00 -11°C° 0.2 mm 16 m/s 740 mmHg 80%
    16:00 -10°C° 0.2 mm 15 m/s 742 mmHg 74%
    17:00 -10°C° 0.2 mm 14 m/s 743 mmHg 69%
    18:00 -10°C° 0.2 mm 14 m/s 744 mmHg 70%
    19:00 -10°C° 0.2 mm 13 m/s 745 mmHg 72%
    20:00 -10°C° 0.2 mm 13 m/s 746 mmHg 73%
    21:00 -10°C° 0.3 mm 12 m/s 745 mmHg 76%
    22:00 -8°C° 0.3 mm 11 m/s 745 mmHg 79%
    23:00 -8°C° 0.3 mm 10 m/s 745 mmHg 82%

    23 Martie, Sâmbătă

    Timp Temperatura Precipitaţii Vânt Presiune Umiditate
    00:00 -7°C° 0.4 mm 10 m/s 745 mmHg 80%
    01:00 -6°C° 0.4 mm 11 m/s 744 mmHg 77%
    02:00 -4°C° 0.4 mm 11 m/s 743 mmHg 75%
    03:00 -5°C° 0.5 mm 13 m/s 741 mmHg 73%
    04:00 -4°C° 0.5 mm 15 m/s 740 mmHg 72%
    05:00 -3°C° 0.5 mm 17 m/s 738 mmHg 70%
    06:00 -2°C° 1.1 mm 14 m/s 738 mmHg 74%
    07:00 -3°C° 1.1 mm 11 m/s 738 mmHg 78%
    08:00 -2°C° 1.1 mm 8 m/s 738 mmHg 82%
    09:00 -2°C° 0.6 mm 7 m/s 738 mmHg 86%
    10:00 -1°C° 0.6 mm 5 m/s 737 mmHg 91%
    11:00 -2°C° 0.6 mm 4 m/s 737 mmHg 95%
    12:00 -3°C° 0.5 mm 7 m/s 737 mmHg 87%
    13:00 -3°C° 0.5 mm 9 m/s 736 mmHg 79%
    14:00 -3°C° 0.5 mm 12 m/s 736 mmHg 71%
    15:00 -5°C° 0.5 mm 13 m/s 737 mmHg 72%
    16:00 -6°C° 0.5 mm 13 m/s 737 mmHg 74%
    17:00 -8°C° 0.5 mm 14 m/s 738 mmHg 76%
    18:00 -8°C° 0.3 mm 14 m/s 738 mmHg 73%
    19:00 -9°C° 0.3 mm 15 m/s 739 mmHg 71%
    20:00 -10°C° 0.3 mm 15 m/s 740 mmHg 69%
    21:00 -10°C° 0.3 mm 15 m/s 741 mmHg 68%
    22:00 -10°C° 0.3 mm 15 m/s 742 mmHg 66%
    23:00 -10°C° 0.3 mm 15 m/s 743 mmHg 65%

    24 Martie, Duminică

    Timp Temperatura Precipitaţii Vânt Presiune Umiditate
    00:00 -10°C° 0.3 mm 14 m/s 744 mmHg 66%
    01:00 -10°C° 0.3 mm 12 m/s 745 mmHg 68%
    02:00 -9°C° 0.3 mm 11 m/s 746 mmHg 69%
    03:00 -10°C° 0.2 mm 12 m/s 748 mmHg 69%
    04:00 -10°C° 0.2 mm 12 m/s 750 mmHg 69%
    05:00 -10°C° 0.2 mm 13 m/s 752 mmHg 70%
    06:00 -11°C° 0.1 mm 11 m/s 754 mmHg 72%
    07:00 -10°C° 0.1 mm 10 m/s 756 mmHg 74%
    08:00 -11°C° 0.1 mm 8 m/s 758 mmHg 75%
    09:00 -11°C° 0 mm 7 m/s 759 mmHg 74%
    10:00 -10°C° 0 mm 6 m/s 760 mmHg 72%
    11:00 -8°C° 0 mm 5 m/s 762 mmHg 70%
    12:00 -8°C° 0 mm 5 m/s 763 mmHg 69%
    13:00 -9°C° 0 mm 6 m/s 763 mmHg 68%
    14:00 -9°C° 0 mm 6 m/s 764 mmHg 67%
    15:00 -10°C° 0 mm 5 m/s 764 mmHg 68%
    16:00 -10°C° 0 mm 5 m/s 765 mmHg 70%
    17:00 -9°C° 0 mm 4 m/s 765 mmHg 72%
    18:00 -11°C° 0 mm 5 m/s 766 mmHg 71%
    19:00 -12°C° 0 mm 5 m/s 766 mmHg 71%
    20:00 -13°C° 0 mm 5 m/s 766 mmHg 71%
    21:00 -14°C° 0 mm 6 m/s 766 mmHg 68%
    22:00 -14°C° 0 mm 6 m/s 766 mmHg 64%
    23:00 -14°C° 0 mm 7 m/s 766 mmHg 61%

    25 Martie, Luni

    Timp Temperatura Precipitaţii Vânt Presiune Umiditate
    00:00 -13°C° 0 mm 7 m/s 766 mmHg 63%
    01:00 -12°C° 0 mm 7 m/s 766 mmHg 66%
    02:00 -10°C° 0 mm 8 m/s 765 mmHg 68%
    03:00 -10°C° 0.2 mm 8 m/s 765 mmHg 73%
    04:00 -9°C° 0.2 mm 9 m/s 765 mmHg 78%
    05:00 -9°C° 0.2 mm 10 m/s 764 mmHg 84%
    06:00 -8°C° 0.2 mm 10 m/s 765 mmHg 85%
    07:00 -7°C° 0.2 mm 11 m/s 765 mmHg 87%
    08:00 -6°C° 0.2 mm 11 m/s 765 mmHg 88%
    09:00 -4°C° 0 mm 11 m/s 764 mmHg 89%
    10:00 -3°C° 0 mm 11 m/s 764 mmHg 90%
    11:00 -2°C° 0 mm 11 m/s 764 mmHg 91%
    12:00 0°C° 0.1 mm 10 m/s 764 mmHg 94%
    13:00 +1°C° 0.1 mm 10 m/s 763 mmHg 96%
    14:00 +1°C° 0.1 mm 10 m/s 763 mmHg 99%
    15:00 +1°C° 0.7 mm 10 m/s 762 mmHg 98%
    16:00 +1°C° 0.7 mm 11 m/s 761 mmHg 98%
    17:00 +2°C° 0.7 mm 11 m/s 761 mmHg 98%
    18:00 +2°C° 0.7 mm 11 m/s 760 mmHg 98%
    19:00 +2°C° 0.7 mm 11 m/s 760 mmHg 98%
    20:00 +2°C° 0.7 mm 11 m/s 759 mmHg 98%
    21:00 +2°C° 0.5 mm 11 m/s 759 mmHg 98%
    22:00 +2°C° 0.5 mm 12 m/s 758 mmHg 98%
    23:00 +2°C° 0.5 mm 12 m/s 757 mmHg 98%
    Arată mai mult